STARLINK-32620, 61928

Orbit data source: Space-Track

STARLINK-32620, 61928 is a payload satellite owned by SpaceX/Seattle (US) in LEO that was launched on Mon, 11 Nov 2024 UTC via an FALCON 9 launch vehicle from the Air Force Eastern Test Range (AFETR). Payload-class satellites include a variety of spacecraft equipped with specific instruments for various scientific and technological missions. These include communications satellites like Starlink; space stations such as the ISS; scientific satellites like the Hubble; Earth observation satellites from companies like Planet Labs, Umbra, and HawkEye 360; GPS; miniature CubeSats for education and research; and military/defense satellites.

Loading next visibility...
Identifier
61928, 2024-207S
Orbit
LEO
Country
Flag of USUS
Related business
Manufacturer
SpaceX/Seattle
Mission
Operational Commercial Communications
Bus & Motor
STARLINK V2M, Unknown motor
Mass
730 kg wet, ~700 kg dry
Launch date (UTC)
2024-11-11 (1 year ago)
Launch vehicle
FALCON 9
Launch site
Air Force Eastern Test Range (AFETR)
Object type
Payload
Rocket body
Debris
Shape & HBR
Box + 2 Pan, 17.7 m
Radar Cross Section
33.884 m², Large (>1 m²)

Expand to show TLE details & history
Last TLE update: 21 hours ago

TLE from 21 hours ago
0 STARLINK-32620
1 61928U 24207S   26072.81949661  .00038245  00000-0  13913-2 0  9993
2 61928  43.0007 258.4204 0001682 279.1830  80.8831 15.27599508 75353
Epoch: 2026-03-13T19:40Z
TLE epoch observation values (Epoch: 2026-03-13T19:40:04.507Z)
Latitude
-0.00003°
Longitude
151.95204°
Altitude
482.584 km
Speed
7.626 km/s
True Right ascension
17h 13m 40s
True Declination
0° 00' 00"
Sunlit
Object was in daylight at epoch
Visualization orbit readout
Latitude
Unknown
Longitude
Unknown
Altitude
Unknown
Speed
Unknown
Apparent Right ascension
Unknown
Apparent Declination
Unknown
Sunlit
N/A
Visualization observer readout
Local Sidereal Time
20:50:46
Azimuth
Unknown
Elevation
Unknown
Doppler factor
Unknown
Orbital elements
Apogee altitude
486.09 km
Perigee altitude
483.781 km
Semi-major axis
6,863.073 km
Eccentricity
0.00017
Inclination
43.0007°
RAAN
258.4204°
Arg. of periapsis
279.183°
True anomaly
80.90213°
Mean anomaly
80.8831°
Eccentric anomaly
80.89262°
Mean motion
3.81738 °/min
Orbital period
94.31 mins
BSTAR
0.0013913
Loading maneuver chart data...
Computing Atmospheric mass density...
Loading historical data...
Loading historical data...
Loading historical data...
Loading historical data...
Loading historical data...
Loading historical data...
Loading historical data...

Documentation

Showing up to 5 results
|